When you browse on this site, cookies collect data to enhance your experience and personalize the content and advertising you see.
Visit our Privacy Policy to learn more. By continuing to use the site, you agree to this use of cookies and data.
  • In Hungary
  • List of Countries
  • For 7 days
  • Water Temperature
  • Satellite Maps
  • Weather Map
  • News
  • Weather Widgets
  • user-avatar
    Login

    Hourly Weather Landsberg am Lech

    Today, 21 February, Thursday

    Time Temperature Precipitation Wind Pressure Humidity
    00:00 +4°C° 0 mm 2 mps 714 mmHg 88%
    01:00 +4°C° 0 mm 1 mps 715 mmHg 88%
    02:00 +3°C° 0 mm 2 mps 715 mmHg 88%
    03:00 +3°C° 0 mm 2 mps 715 mmHg 88%
    04:00 +3°C° 0 mm 2 mps 715 mmHg 88%
    05:00 +3°C° 0 mm 2 mps 715 mmHg 88%
    06:00 +2°C° 0 mm 2 mps 715 mmHg 88%
    07:00 +2°C° 0 mm 2 mps 715 mmHg 87%
    08:00 +3°C° 0 mm 2 mps 715 mmHg 85%
    09:00 +5°C° 0 mm 2 mps 715 mmHg 84%
    10:00 +6°C° 0 mm 2 mps 715 mmHg 82%
    11:00 +7°C° 0 mm 2 mps 715 mmHg 78%
    12:00 +9°C° 0 mm 3 mps 715 mmHg 74%
    13:00 +10°C° 0 mm 3 mps 715 mmHg 71%
    14:00 +10°C° 0 mm 3 mps 715 mmHg 71%
    15:00 +10°C° 0 mm 3 mps 715 mmHg 72%
    16:00 +10°C° 0 mm 3 mps 715 mmHg 72%
    17:00 +9°C° 0 mm 3 mps 715 mmHg 77%
    18:00 +7°C° 0 mm 2 mps 715 mmHg 82%
    19:00 +5°C° 0 mm 2 mps 716 mmHg 87%
    20:00 +5°C° 0 mm 2 mps 716 mmHg 88%
    21:00 +4°C° 0 mm 2 mps 716 mmHg 89%
    22:00 +4°C° 0 mm 2 mps 716 mmHg 89%
    23:00 +3°C° 0.1 mm 3 mps 716 mmHg 89%

    Tomorrow, 22 February, Friday

    Time Temperature Precipitation Wind Pressure Humidity
    00:00 +4°C° 0.1 mm 3 mps 717 mmHg 88%
    01:00 +4°C° 0.1 mm 3 mps 717 mmHg 87%
    02:00 +4°C° 0.5 mm 4 mps 717 mmHg 88%
    03:00 +4°C° 0.5 mm 4 mps 717 mmHg 89%
    04:00 +4°C° 0.5 mm 4 mps 717 mmHg 89%
    05:00 +4°C° 0.7 mm 4 mps 717 mmHg 90%
    06:00 +3°C° 0.7 mm 5 mps 717 mmHg 91%
    07:00 +3°C° 0.7 mm 5 mps 717 mmHg 92%
    08:00 +4°C° 0.2 mm 4 mps 717 mmHg 92%
    09:00 +5°C° 0.2 mm 3 mps 717 mmHg 93%
    10:00 +5°C° 0.2 mm 3 mps 717 mmHg 94%
    11:00 +6°C° 0.1 mm 2 mps 718 mmHg 91%
    12:00 +7°C° 0.1 mm 2 mps 718 mmHg 88%
    13:00 +7°C° 0.1 mm 2 mps 718 mmHg 85%
    14:00 +8°C° 0.1 mm 2 mps 718 mmHg 84%
    15:00 +8°C° 0.1 mm 2 mps 718 mmHg 82%
    16:00 +8°C° 0.1 mm 2 mps 718 mmHg 81%
    17:00 +7°C° 0 mm 2 mps 719 mmHg 84%
    18:00 +6°C° 0 mm 2 mps 719 mmHg 87%
    19:00 +6°C° 0 mm 1 mps 720 mmHg 91%
    20:00 +5°C° 0 mm 2 mps 720 mmHg 91%
    21:00 +4°C° 0 mm 2 mps 720 mmHg 92%
    22:00 +3°C° 0 mm 3 mps 720 mmHg 93%
    23:00 +2°C° 0 mm 3 mps 720 mmHg 94%

    Day after tomorrow, 23 February, Saturday

    Time Temperature Precipitation Wind Pressure Humidity
    00:00 +2°C° 0 mm 3 mps 720 mmHg 95%
    01:00 +1°C° 0 mm 3 mps 720 mmHg 95%
    02:00 0°C° 0 mm 3 mps 720 mmHg 92%
    03:00 0°C° 0 mm 3 mps 720 mmHg 89%
    04:00 -1°C° 0 mm 3 mps 720 mmHg 85%
    05:00 -2°C° 0 mm 3 mps 720 mmHg 85%
    06:00 -2°C° 0 mm 3 mps 720 mmHg 85%
    07:00 -4°C° 0 mm 3 mps 720 mmHg 85%
    08:00 -2°C° 0 mm 3 mps 720 mmHg 81%
    09:00 -2°C° 0 mm 4 mps 720 mmHg 78%
    10:00 0°C° 0 mm 4 mps 720 mmHg 74%
    11:00 +1°C° 0 mm 5 mps 720 mmHg 66%
    12:00 +2°C° 0 mm 5 mps 720 mmHg 58%
    13:00 +3°C° 0 mm 6 mps 720 mmHg 50%
    14:00 +3°C° 0 mm 6 mps 719 mmHg 50%
    15:00 +3°C° 0 mm 6 mps 719 mmHg 50%
    16:00 +3°C° 0 mm 5 mps 719 mmHg 49%
    17:00 +1°C° 0 mm 5 mps 719 mmHg 52%
    18:00 -1°C° 0 mm 5 mps 719 mmHg 54%
    19:00 -2°C° 0 mm 4 mps 719 mmHg 57%
    20:00 -3°C° 0 mm 4 mps 719 mmHg 58%
    21:00 -3°C° 0 mm 4 mps 719 mmHg 59%
    22:00 -3°C° 0 mm 4 mps 719 mmHg 60%
    23:00 -4°C° 0 mm 4 mps 719 mmHg 60%

    24 February, Sunday

    Time Temperature Precipitation Wind Pressure Humidity
    00:00 -4°C° 0 mm 4 mps 719 mmHg 60%
    01:00 -4°C° 0 mm 4 mps 719 mmHg 60%
    02:00 -4°C° 0 mm 4 mps 719 mmHg 59%
    03:00 -4°C° 0 mm 3 mps 719 mmHg 58%
    04:00 -4°C° 0 mm 3 mps 719 mmHg 57%
    05:00 -4°C° 0 mm 3 mps 719 mmHg 56%
    06:00 -4°C° 0 mm 3 mps 719 mmHg 54%
    07:00 -4°C° 0 mm 3 mps 719 mmHg 53%
    08:00 -2°C° 0 mm 3 mps 719 mmHg 48%
    09:00 0°C° 0 mm 3 mps 719 mmHg 43%
    10:00 +2°C° 0 mm 3 mps 720 mmHg 38%
    11:00 +3°C° 0 mm 4 mps 720 mmHg 36%
    12:00 +5°C° 0 mm 4 mps 720 mmHg 34%
    13:00 +6°C° 0 mm 4 mps 720 mmHg 32%
    14:00 +6°C° 0 mm 4 mps 720 mmHg 35%
    15:00 +6°C° 0 mm 4 mps 719 mmHg 38%
    16:00 +6°C° 0 mm 4 mps 719 mmHg 41%
    17:00 +4°C° 0 mm 4 mps 720 mmHg 46%
    18:00 +2°C° 0 mm 3 mps 720 mmHg 51%
    19:00 0°C° 0 mm 3 mps 720 mmHg 56%
    20:00 0°C° 0 mm 3 mps 720 mmHg 58%
    21:00 -1°C° 0 mm 2 mps 720 mmHg 61%
    22:00 -1°C° 0 mm 2 mps 721 mmHg 64%
    23:00 -1°C° 0 mm 2 mps 720 mmHg 65%

    25 February, Monday

    Time Temperature Precipitation Wind Pressure Humidity
    00:00 -1°C° 0 mm 2 mps 720 mmHg 66%
    01:00 -1°C° 0 mm 2 mps 720 mmHg 67%
    02:00 -1°C° 0 mm 2 mps 720 mmHg 68%
    03:00 -1°C° 0 mm 2 mps 720 mmHg 69%
    04:00 -1°C° 0 mm 2 mps 720 mmHg 70%
    05:00 -2°C° 0 mm 2 mps 720 mmHg 70%
    06:00 -2°C° 0 mm 2 mps 720 mmHg 71%
    07:00 -2°C° 0 mm 2 mps 720 mmHg 71%
    08:00 +1°C° 0 mm 2 mps 720 mmHg 66%
    09:00 +2°C° 0 mm 3 mps 720 mmHg 62%
    10:00 +4°C° 0 mm 3 mps 720 mmHg 57%
    11:00 +5°C° 0 mm 4 mps 720 mmHg 56%
    12:00 +7°C° 0 mm 5 mps 720 mmHg 55%
    13:00 +8°C° 0 mm 5 mps 720 mmHg 54%
    14:00 +8°C° 0 mm 5 mps 719 mmHg 56%
    15:00 +7°C° 0 mm 5 mps 719 mmHg 59%
    16:00 +7°C° 0 mm 5 mps 719 mmHg 61%
    17:00 +6°C° 0 mm 5 mps 719 mmHg 68%
    18:00 +4°C° 0 mm 4 mps 719 mmHg 75%
    19:00 +1°C° 0 mm 4 mps 719 mmHg 82%
    20:00 +2°C° 0 mm 3 mps 719 mmHg 83%
    21:00 +1°C° 0 mm 3 mps 719 mmHg 85%
    22:00 +1°C° 0 mm 3 mps 719 mmHg 87%
    23:00 0°C° 0 mm 3 mps 719 mmHg 88%

    26 February, Tuesday

    Time Temperature Precipitation Wind Pressure Humidity
    00:00 0°C° 0 mm 3 mps 719 mmHg 89%
    01:00 +1°C° 0 mm 2 mps 719 mmHg 91%
    02:00 +1°C° 0 mm 2 mps 719 mmHg 90%
    03:00 -1°C° 0 mm 2 mps 718 mmHg 90%
    04:00 +1°C° 0 mm 1 mps 718 mmHg 90%
    05:00 +1°C° 0 mm 1 mps 718 mmHg 89%
    06:00 +1°C° 0 mm 1 mps 718 mmHg 89%
    07:00 +1°C° 0 mm 1 mps 718 mmHg 88%
    08:00 +3°C° 0 mm 1 mps 718 mmHg 81%
    09:00 +5°C° 0 mm 1 mps 719 mmHg 73%
    10:00 +7°C° 0 mm 1 mps 719 mmHg 65%
    11:00 +9°C° 0 mm 1 mps 719 mmHg 61%
    12:00 +10°C° 0 mm 1 mps 719 mmHg 57%
    13:00 +12°C° 0 mm 2 mps 718 mmHg 53%
    14:00 +12°C° 0 mm 2 mps 718 mmHg 54%
    15:00 +12°C° 0 mm 2 mps 718 mmHg 56%
    16:00 +12°C° 0 mm 2 mps 718 mmHg 58%
    17:00 +10°C° 0 mm 1 mps 718 mmHg 64%
    18:00 +8°C° 0 mm 1 mps 718 mmHg 71%
    19:00 +5°C° 0 mm 0 mps 718 mmHg 77%
    20:00 +5°C° 0 mm 0 mps 718 mmHg 79%
    21:00 +5°C° 0 mm 1 mps 718 mmHg 81%
    22:00 +5°C° 0 mm 1 mps 717 mmHg 83%
    23:00 +5°C° 0 mm 1 mps 717 mmHg 83%
    Show more